Location: Newark
(33.6333°S, 78.8500°W)
Time: 19:04:43
(UTC+00:00)

Vanguard 1 - Pass Details

Date: 30 September 2019
Orbit: 653 x 3830 km, 34.2° (Epoch: 20 October)

Event Time Altitude Azimuth Distance (km) Brightness Sun altitude
Rises 00:29:42 0° 270° (W) 3,764 14.6 -15.8°
Reaches altitude 10° 00:32:37 10° 286° (WNW) 3,132 13.5 -16.4°
Maximum altitude 00:38:27 22° 334° (NNW) 2,967 12.6 -17.6°
Drops below altitude 10° 00:47:03 10° 18° (NNE) 4,808 13.2 -19.3°
Enters shadow 00:51:27 - 28° (NNE) 5,989 13.7 -20.2°
